TYA2212 UUYH-USTR

Flight info

Callsign TYA2212
Flight time 1h 23m
Altitude 35000
Route OKRAN3Q OKRAN M59 ERUSA M168 BIBLI N987 GOREN GOREN1M
Aircraft B738/M-SDE2E3FGHIRWXY/LB1

Departure

Time 2026-04-28 17:11
Airport Ukhta Airport (UUYH)

Arrival

Time 2026-04-28 18:35
Airport Roshchino International Airport (USTR)
Time Latitude Longitude Altitude Speed Heading
2026-04-28 16:49 63.55638 53.80536 476 ft 0 kts 257°
2026-04-28 17:05 63.55635 53.80506 473 ft 3 kts 257°
2026-04-28 17:06 63.55655 53.80423 474 ft 3 kts 331°
2026-04-28 17:06 63.55678 53.80407 472 ft 4 kts 346°
2026-04-28 17:06 63.55725 53.80352 475 ft 4 kts 292°
2026-04-28 17:07 63.55725 53.80285 477 ft 4 kts 271°
2026-04-28 17:07 63.55738 53.80224 471 ft 4 kts 315°
2026-04-28 17:07 63.55764 53.80187 473 ft 5 kts 328°
2026-04-28 17:07 63.55772 53.80176 475 ft 0 kts 328°
2026-04-28 17:08 63.55773 53.80175 475 ft 0 kts 328°
2026-04-28 17:09 63.55783 53.80160 474 ft 5 kts 328°
2026-04-28 17:09 63.55829 53.80098 473 ft 9 kts 328°
2026-04-28 17:09 63.55858 53.79985 474 ft 7 kts 290°
2026-04-28 17:09 63.55900 53.79964 473 ft 7 kts 16°
2026-04-28 17:10 63.55903 53.79966 474 ft 0 kts 16°
2026-04-28 17:10 63.55962 53.80002 471 ft 35 kts 15°
2026-04-28 17:11 63.56469 53.80317 463 ft 116 kts 15°
2026-04-28 17:11 63.57469 53.80974 541 ft 172 kts 19°
2026-04-28 17:11 63.58517 53.81655 1600 ft 154 kts 18°
2026-04-28 17:11 63.59628 53.82265 2219 ft 170 kts 14°
2026-04-28 17:12 63.60908 53.82865 2573 ft 205 kts 14°
2026-04-28 17:12 63.62392 53.83639 2826 ft 231 kts 22°
2026-04-28 17:12 63.63612 53.85967 3275 ft 236 kts 65°
2026-04-28 17:12 63.63905 53.89564 3678 ft 248 kts 102°
2026-04-28 17:13 63.63293 53.93234 4333 ft 256 kts 112°
2026-04-28 17:13 63.62742 53.97061 5284 ft 257 kts 107°
2026-04-28 17:13 63.62269 54.00957 6206 ft 260 kts 106°
2026-04-28 17:13 63.61819 54.04942 7074 ft 265 kts 105°
2026-04-28 17:14 63.61383 54.08985 7938 ft 268 kts 104°
2026-04-28 17:14 63.60954 54.13094 8788 ft 272 kts 104°
2026-04-28 17:14 63.60526 54.17279 9622 ft 275 kts 104°
2026-04-28 17:14 63.60094 54.21558 10176 ft 291 kts 104°
2026-04-28 17:15 63.59627 54.26206 10387 ft 317 kts 104°
2026-04-28 17:15 63.59137 54.31124 10937 ft 328 kts 104°
2026-04-28 17:15 63.58637 54.36171 11697 ft 332 kts 103°
2026-04-28 17:15 63.57949 54.41049 12463 ft 334 kts 117°
2026-04-28 17:16 63.56616 54.45334 13234 ft 336 kts 134°
2026-04-28 17:16 63.54875 54.48889 13972 ft 339 kts 139°
2026-04-28 17:16 63.53097 54.52419 14671 ft 344 kts 139°
2026-04-28 17:16 63.51299 54.55998 15365 ft 348 kts 139°
2026-04-28 17:17 63.49480 54.59625 16059 ft 351 kts 138°
2026-04-28 17:17 63.47651 54.63283 16729 ft 355 kts 138°
2026-04-28 17:17 63.45802 54.66986 17379 ft 358 kts 138°
2026-04-28 17:17 63.43939 54.70720 17997 ft 362 kts 138°
2026-04-28 17:18 63.42056 54.74494 18633 ft 365 kts 138°
2026-04-28 17:18 63.40155 54.78301 19237 ft 369 kts 138°
2026-04-28 17:18 63.38230 54.82151 19832 ft 372 kts 138°
2026-04-28 17:18 63.36288 54.86027 20409 ft 376 kts 138°
2026-04-28 17:19 63.34359 54.89872 20960 ft 379 kts 138°
2026-04-28 17:19 63.32381 54.93808 21502 ft 382 kts 138°
2026-04-28 17:19 63.30385 54.97771 22028 ft 385 kts 138°
2026-04-28 17:19 63.28466 55.01576 22515 ft 388 kts 138°
2026-04-28 17:20 63.26439 55.05585 23010 ft 391 kts 138°
2026-04-28 17:20 63.25088 55.08255 23334 ft 393 kts 138°
2026-04-28 17:20 63.22330 55.13691 23953 ft 397 kts 139°
2026-04-28 17:20 63.20251 55.17780 24418 ft 400 kts 139°
2026-04-28 17:21 63.18190 55.21825 24850 ft 403 kts 139°
2026-04-28 17:21 63.16082 55.25956 25284 ft 406 kts 139°
2026-04-28 17:21 63.13953 55.30118 25698 ft 408 kts 139°
2026-04-28 17:22 63.09663 55.38477 26493 ft 414 kts 139°
2026-04-28 17:22 63.07496 55.42687 26887 ft 416 kts 139°
2026-04-28 17:22 63.05313 55.46920 27245 ft 419 kts 139°
2026-04-28 17:23 63.00907 55.55436 27951 ft 423 kts 139°
2026-04-28 17:23 62.99439 55.58267 28175 ft 425 kts 139°
2026-04-28 17:23 62.97207 55.62560 28492 ft 427 kts 139°
2026-04-28 17:23 62.94959 55.66877 28823 ft 429 kts 139°
2026-04-28 17:24 62.92706 55.71193 29136 ft 431 kts 139°
2026-04-28 17:24 62.90433 55.75539 29449 ft 433 kts 139°
2026-04-28 17:24 62.87425 55.81275 30022 ft 431 kts 139°
2026-04-28 17:24 62.85896 55.84184 30317 ft 430 kts 139°
2026-04-28 17:25 62.83645 55.88462 30717 ft 428 kts 139°
2026-04-28 17:25 62.79140 55.96992 31430 ft 428 kts 139°
2026-04-28 17:25 62.77023 56.00990 31769 ft 427 kts 139°
2026-04-28 17:26 62.74909 56.04973 32126 ft 426 kts 139°
2026-04-28 17:26 62.72656 56.09208 32454 ft 426 kts 139°
2026-04-28 17:26 62.70418 56.13419 32706 ft 427 kts 144°
2026-04-28 17:26 62.68148 56.17671 32843 ft 432 kts 145°
2026-04-28 17:27 62.65871 56.21921 33185 ft 431 kts 145°
2026-04-28 17:27 62.63625 56.26108 33555 ft 428 kts 145°
2026-04-28 17:27 62.61367 56.30311 33893 ft 427 kts 146°
2026-04-28 17:27 62.59107 56.34504 34173 ft 427 kts 146°
2026-04-28 17:28 62.56842 56.38701 34431 ft 428 kts 145°
2026-04-28 17:28 62.52307 56.47075 34935 ft 429 kts 145°
2026-04-28 17:28 62.50014 56.51293 34908 ft 435 kts 145°
2026-04-28 17:29 62.45354 56.59834 34924 ft 443 kts 145°
2026-04-28 17:30 62.38295 56.72730 34944 ft 443 kts 145°
2026-04-28 17:30 62.31209 56.85594 34878 ft 445 kts 146°
2026-04-28 17:31 62.24127 56.98363 34871 ft 444 kts 146°
2026-04-28 17:32 62.17134 57.10890 34867 ft 443 kts 146°
2026-04-28 17:32 62.12395 57.19339 34873 ft 443 kts 146°
2026-04-28 17:33 62.07651 57.27756 34869 ft 443 kts 146°
2026-04-28 17:33 62.03707 57.34727 34869 ft 443 kts 146°
2026-04-28 17:34 61.98170 57.44477 34874 ft 443 kts 146°
2026-04-28 17:34 61.93442 57.52759 34868 ft 444 kts 147°
2026-04-28 17:35 61.88668 57.61094 34871 ft 444 kts 147°
2026-04-28 17:35 61.83881 57.69413 34849 ft 445 kts 147°
2026-04-28 17:36 61.79074 57.77728 34757 ft 448 kts 147°
2026-04-28 17:36 61.74274 57.86000 34748 ft 448 kts 147°
2026-04-28 17:37 61.69244 57.94640 34743 ft 447 kts 147°
2026-04-28 17:37 61.64537 58.02687 34740 ft 446 kts 147°
2026-04-28 17:38 61.59758 58.10819 34743 ft 446 kts 147°
2026-04-28 17:38 61.54964 58.18943 34751 ft 445 kts 147°
2026-04-28 17:39 61.50135 58.27093 34748 ft 445 kts 147°
2026-04-28 17:40 61.42930 58.39195 34762 ft 445 kts 147°
2026-04-28 17:40 61.38091 58.47281 34754 ft 445 kts 147°
2026-04-28 17:41 61.33250 58.55337 34772 ft 445 kts 147°
2026-04-28 17:41 61.28408 58.63361 34768 ft 445 kts 148°
2026-04-28 17:42 61.23552 58.71376 34767 ft 446 kts 148°
2026-04-28 17:42 61.18691 58.79368 34786 ft 445 kts 148°
2026-04-28 17:43 61.13895 58.87237 34843 ft 426 kts 148°
2026-04-28 17:43 61.11645 58.90934 34846 ft 411 kts 149°
2026-04-28 17:43 61.09415 58.94580 34850 ft 407 kts 149°
2026-04-28 17:44 61.05041 59.01663 34869 ft 413 kts 149°
2026-04-28 17:44 61.00470 59.09034 34864 ft 418 kts 149°
2026-04-28 17:45 60.95901 59.16405 34870 ft 418 kts 149°
2026-04-28 17:45 60.91288 59.23812 34880 ft 426 kts 149°
2026-04-28 17:46 60.86564 59.31367 34880 ft 434 kts 149°
2026-04-28 17:46 60.81783 59.38993 34870 ft 436 kts 149°
2026-04-28 17:47 60.76986 59.46621 34883 ft 437 kts 149°
2026-04-28 17:47 60.72207 59.54188 34875 ft 436 kts 150°
2026-04-28 17:48 60.67404 59.61763 34879 ft 436 kts 149°
2026-04-28 17:48 60.62590 59.69312 34892 ft 435 kts 150°
2026-04-28 17:49 60.57784 59.76822 34886 ft 435 kts 150°
2026-04-28 17:49 60.52970 59.84321 34892 ft 435 kts 150°
2026-04-28 17:50 60.48193 59.91732 34893 ft 435 kts 150°
2026-04-28 17:50 60.43386 59.99167 34898 ft 435 kts 150°
2026-04-28 17:51 60.38689 60.06401 34900 ft 435 kts 150°
2026-04-28 17:51 60.33867 60.13800 34901 ft 435 kts 150°
2026-04-28 17:52 60.29046 60.21176 34920 ft 434 kts 151°
2026-04-28 17:52 60.21821 60.32170 34928 ft 434 kts 151°
2026-04-28 17:53 60.16986 60.39490 34942 ft 434 kts 151°
2026-04-28 17:53 60.12183 60.46732 34938 ft 434 kts 151°
2026-04-28 17:54 60.07346 60.54006 34935 ft 435 kts 151°
2026-04-28 17:54 60.02509 60.61251 34934 ft 434 kts 151°
2026-04-28 17:55 59.97680 60.68458 34937 ft 434 kts 152°
2026-04-28 17:55 59.92839 60.75655 34946 ft 434 kts 152°
2026-04-28 17:56 59.88026 60.82781 34943 ft 433 kts 152°
2026-04-28 17:56 59.83975 60.88761 34974 ft 432 kts 152°
2026-04-28 17:57 59.79169 60.95828 34983 ft 431 kts 152°
2026-04-28 17:57 59.74451 61.02738 34985 ft 431 kts 152°
2026-04-28 17:58 59.69619 61.09790 34998 ft 431 kts 152°
2026-04-28 17:58 59.64782 61.16831 34988 ft 431 kts 152°
2026-04-28 17:59 59.59984 61.23787 34998 ft 430 kts 152°
2026-04-28 17:59 59.55156 61.30758 34983 ft 430 kts 152°
2026-04-28 18:00 59.50324 61.37714 35003 ft 430 kts 152°
2026-04-28 18:00 59.45492 61.44642 34999 ft 430 kts 153°
2026-04-28 18:01 59.40658 61.51549 35005 ft 429 kts 153°
2026-04-28 18:01 59.35858 61.58381 35007 ft 428 kts 153°
2026-04-28 18:02 59.31032 61.65227 35014 ft 428 kts 153°
2026-04-28 18:02 59.26195 61.72063 35006 ft 428 kts 153°
2026-04-28 18:03 59.21358 61.78877 35008 ft 428 kts 153°
2026-04-28 18:03 59.16517 61.85669 35017 ft 428 kts 153°
2026-04-28 18:04 59.11670 61.92448 35017 ft 428 kts 153°
2026-04-28 18:04 59.06828 61.99193 35016 ft 428 kts 153°
2026-04-28 18:05 59.02918 62.04623 35018 ft 429 kts 154°
2026-04-28 18:05 58.97263 62.12450 35018 ft 428 kts 154°
2026-04-28 18:06 58.92462 62.19070 35019 ft 428 kts 154°
2026-04-28 18:06 58.87635 62.25704 35018 ft 428 kts 154°
2026-04-28 18:07 58.82803 62.32326 34644 ft 421 kts 154°
2026-04-28 18:07 58.80434 62.35575 34224 ft 413 kts 155°
2026-04-28 18:07 58.78111 62.38750 33816 ft 407 kts 155°
2026-04-28 18:08 58.75816 62.41877 33364 ft 402 kts 155°
2026-04-28 18:08 58.73545 62.44962 32941 ft 397 kts 155°
2026-04-28 18:08 58.71301 62.48004 32520 ft 392 kts 156°
2026-04-28 18:08 58.69087 62.51001 32097 ft 387 kts 156°
2026-04-28 18:09 58.66895 62.53965 31698 ft 382 kts 156°
2026-04-28 18:09 58.64728 62.56887 31293 ft 378 kts 156°
2026-04-28 18:09 58.62583 62.59778 30882 ft 374 kts 156°
2026-04-28 18:09 58.60468 62.62625 30509 ft 369 kts 156°
2026-04-28 18:10 58.58402 62.65403 30119 ft 366 kts 156°
2026-04-28 18:10 58.56330 62.68185 29724 ft 362 kts 157°
2026-04-28 18:10 58.54288 62.70970 29353 ft 360 kts 154°
2026-04-28 18:10 58.52414 62.74229 28980 ft 369 kts 145°
2026-04-28 18:11 58.50688 62.77852 28572 ft 367 kts 144°
2026-04-28 18:11 58.48981 62.81459 28189 ft 365 kts 144°
2026-04-28 18:11 58.47240 62.85107 27733 ft 380 kts 144°
2026-04-28 18:11 58.45408 62.88907 27390 ft 393 kts 143°
2026-04-28 18:12 58.43556 62.92767 26948 ft 393 kts 143°
2026-04-28 18:12 58.41716 62.96614 26534 ft 391 kts 143°
2026-04-28 18:12 58.39978 63.00239 26148 ft 389 kts 143°
2026-04-28 18:12 58.38158 63.04021 25732 ft 387 kts 143°
2026-04-28 18:13 58.36339 63.07789 25324 ft 385 kts 144°
2026-04-28 18:13 58.34527 63.11527 24902 ft 383 kts 144°
2026-04-28 18:13 58.32719 63.15249 24496 ft 381 kts 144°
2026-04-28 18:13 58.30920 63.18946 24082 ft 379 kts 143°
2026-04-28 18:14 58.29155 63.22569 23663 ft 378 kts 143°
2026-04-28 18:14 58.27372 63.26220 23260 ft 375 kts 143°
2026-04-28 18:14 58.25596 63.29851 22834 ft 373 kts 143°
2026-04-28 18:14 58.23833 63.33451 22431 ft 371 kts 143°
2026-04-28 18:15 58.22082 63.37022 22023 ft 368 kts 143°
2026-04-28 18:15 58.20335 63.40579 21613 ft 365 kts 143°
2026-04-28 18:15 58.18611 63.44083 21209 ft 362 kts 143°
2026-04-28 18:15 58.16895 63.47565 20785 ft 360 kts 143°
2026-04-28 18:16 58.15191 63.51019 20383 ft 357 kts 143°
2026-04-28 18:16 58.13500 63.54441 19992 ft 355 kts 143°
2026-04-28 18:16 58.11817 63.57841 19590 ft 353 kts 143°
2026-04-28 18:16 58.10144 63.61215 19197 ft 350 kts 143°
2026-04-28 18:17 58.08472 63.64521 18841 ft 347 kts 144°
2026-04-28 18:17 58.06795 63.67790 18438 ft 345 kts 144°
2026-04-28 18:17 58.05126 63.71029 18037 ft 343 kts 144°
2026-04-28 18:17 58.03463 63.74254 17632 ft 342 kts 144°
2026-04-28 18:18 58.01806 63.77467 17230 ft 341 kts 143°
2026-04-28 18:18 58.00155 63.80665 16836 ft 339 kts 143°
2026-04-28 18:18 57.98524 63.83825 16438 ft 338 kts 143°
2026-04-28 18:18 57.97442 63.85918 16179 ft 337 kts 143°
2026-04-28 18:19 57.95275 63.90105 15660 ft 335 kts 143°
2026-04-28 18:19 57.93656 63.93233 15270 ft 333 kts 143°
2026-04-28 18:19 57.92043 63.96343 14872 ft 331 kts 143°
2026-04-28 18:19 57.90441 63.99429 14490 ft 330 kts 143°
2026-04-28 18:20 57.88917 64.02362 14127 ft 329 kts 143°
2026-04-28 18:20 57.87318 64.05436 13739 ft 327 kts 143°
2026-04-28 18:20 57.85740 64.08467 13352 ft 323 kts 143°
2026-04-28 18:20 57.84176 64.11463 12973 ft 318 kts 143°
2026-04-28 18:21 57.82635 64.14405 12612 ft 314 kts 143°
2026-04-28 18:21 57.81098 64.17256 12367 ft 308 kts 144°
2026-04-28 18:21 57.79564 64.20054 12113 ft 305 kts 144°
2026-04-28 18:21 57.78051 64.22805 11860 ft 302 kts 144°
2026-04-28 18:22 57.76561 64.25508 11608 ft 301 kts 144°
2026-04-28 18:22 57.75055 64.28236 11359 ft 301 kts 144°
2026-04-28 18:22 57.73557 64.30970 11119 ft 300 kts 143°
2026-04-28 18:22 57.72101 64.33704 10875 ft 293 kts 142°
2026-04-28 18:23 57.70695 64.36371 10791 ft 282 kts 142°
2026-04-28 18:23 57.69341 64.38941 10655 ft 273 kts 142°
2026-04-28 18:23 57.68049 64.41387 10491 ft 266 kts 143°
2026-04-28 18:23 57.66754 64.43827 10230 ft 264 kts 143°
2026-04-28 18:24 57.65455 64.46263 9915 ft 264 kts 143°
2026-04-28 18:24 57.64595 64.47871 9703 ft 264 kts 142°
2026-04-28 18:24 57.62866 64.51108 9311 ft 262 kts 142°
2026-04-28 18:24 57.61574 64.53520 8982 ft 262 kts 142°
2026-04-28 18:25 57.60283 64.55929 8655 ft 262 kts 142°
2026-04-28 18:25 57.58994 64.58333 8350 ft 262 kts 142°
2026-04-28 18:25 57.57722 64.60703 8062 ft 260 kts 142°
2026-04-28 18:26 57.55165 64.65470 7462 ft 260 kts 142°
2026-04-28 18:26 57.53893 64.67834 7199 ft 257 kts 142°
2026-04-28 18:26 57.52624 64.70190 6895 ft 257 kts 142°
2026-04-28 18:26 57.51356 64.72546 6612 ft 256 kts 142°
2026-04-28 18:27 57.50091 64.74891 6319 ft 256 kts 142°
2026-04-28 18:27 57.48847 64.77196 6034 ft 255 kts 142°
2026-04-28 18:27 57.47576 64.79550 5773 ft 253 kts 142°
2026-04-28 18:27 57.46337 64.81842 5488 ft 249 kts 142°
2026-04-28 18:28 57.45108 64.84105 4998 ft 251 kts 142°
2026-04-28 18:28 57.43865 64.86396 4661 ft 253 kts 141°
2026-04-28 18:28 57.42632 64.88673 4359 ft 253 kts 141°
2026-04-28 18:28 57.41388 64.90963 4091 ft 252 kts 141°
2026-04-28 18:29 57.40140 64.93256 3786 ft 252 kts 141°
2026-04-28 18:29 57.38900 64.95531 3504 ft 250 kts 141°
2026-04-28 18:29 57.37663 64.97797 3214 ft 249 kts 141°
2026-04-28 18:29 57.36453 65.00015 2947 ft 247 kts 141°
2026-04-28 18:30 57.35309 65.02109 2719 ft 246 kts 140°
2026-04-28 18:30 57.34899 65.02862 2683 ft 244 kts 140°
2026-04-28 18:30 57.32943 65.06448 2485 ft 232 kts 140°
2026-04-28 18:30 57.31812 65.08514 2382 ft 225 kts 139°
2026-04-28 18:31 57.30711 65.10522 2250 ft 219 kts 139°
2026-04-28 18:31 57.29660 65.12483 2198 ft 209 kts 137°
2026-04-28 18:31 57.28666 65.14374 2195 ft 200 kts 139°
2026-04-28 18:31 57.27734 65.16120 2209 ft 189 kts 139°
2026-04-28 18:32 57.26813 65.17829 2202 ft 185 kts 140°
2026-04-28 18:32 57.25931 65.19462 2071 ft 175 kts 139°
2026-04-28 18:32 57.25103 65.21009 1878 ft 165 kts 140°
2026-04-28 18:32 57.24305 65.22486 1692 ft 158 kts 139°
2026-04-28 18:33 57.23541 65.23901 1509 ft 152 kts 138°
2026-04-28 18:33 57.22824 65.25233 1345 ft 146 kts 138°
2026-04-28 18:33 57.22115 65.26547 1158 ft 142 kts 137°
2026-04-28 18:33 57.21429 65.27837 1000 ft 140 kts 138°
2026-04-28 18:34 57.20738 65.29140 856 ft 144 kts 137°
2026-04-28 18:34 57.20017 65.30434 633 ft 144 kts 136°
2026-04-28 18:34 57.19333 65.31725 433 ft 142 kts 137°
2026-04-28 18:34 57.18643 65.32996 332 ft 134 kts 135°
2026-04-28 18:35 57.18091 65.34024 335 ft 90 kts 134°
2026-04-28 18:35 57.17887 65.34433 337 ft 19 kts 104°
2026-04-28 18:35 57.17948 65.34598 337 ft 0 kts 45°
2026-04-28 18:36 57.17952 65.34605 339 ft 2 kts 45°
2026-04-28 18:36 57.17974 65.34646 339 ft 7 kts 45°
2026-04-28 18:36 57.18004 65.34726 337 ft 8 kts 73°
2026-04-28 18:37 57.18031 65.34810 339 ft 8 kts 45°
2026-04-28 18:37 57.18051 65.34847 339 ft 0 kts 45°